Location: Praha
(50.0830°N, 14.4670°E)
Time: 10:04:10
(UTC+02:00)

ISS - Pass Details

Date: 01 May 2025
Orbit: 416 x 419 km, 51.6° (Epoch: 18 May)

Event Time Altitude Azimuth Distance (km) Brightness Sun altitude
Exits shadow 02:14:13 22° 88° (E) 966 -1.8 -22.8°
Drops below altitude 10° 02:15:37 10° 78° (ENE) 1,496 -0.6 -22.7°
Sets 02:17:46 0° 73° (ENE) 2,362 0.6 -22.6°
